ELY5107 LLBG-UGTB

Flight info

Callsign ELY5107
Flight time 2h 18m
Altitude 34000
Route DAFNA W13 VELOX N71 DESPO DCT VOLBE DCT VESAR UB545 EVKIT/N0451F350 UT284 SIV UW706 TBN UN61 NOLGA N61 LAGAS
Aircraft B738/M-SDE2E3FGHIRWXY/LB1

Departure

Time 2026-05-05 17:39
Airport Ben Gurion International Airport (LLBG)

Arrival

Time 2026-05-05 19:58
Airport Tbilisi International Airport (UGTB)
Time Latitude Longitude Altitude Speed Heading
2026-05-05 17:07 32.00188 34.87848 119 ft 0 kts 121°
2026-05-05 17:15 32.00188 34.87847 119 ft 0 kts 121°
2026-05-05 17:28 32.00195 34.87834 116 ft 3 kts 121°
2026-05-05 17:29 32.00206 34.87813 118 ft 3 kts 122°
2026-05-05 17:29 32.00215 34.87796 114 ft 3 kts 123°
2026-05-05 17:29 32.00228 34.87777 117 ft 3 kts 147°
2026-05-05 17:29 32.00243 34.87772 114 ft 3 kts 202°
2026-05-05 17:30 32.00244 34.87771 114 ft 3 kts 223°
2026-05-05 17:30 32.00243 34.87772 114 ft 2 kts 211°
2026-05-05 17:32 32.00237 34.87768 114 ft 2 kts 211°
2026-05-05 17:33 32.00214 34.87751 114 ft 5 kts 211°
2026-05-05 17:33 32.00187 34.87711 117 ft 7 kts 263°
2026-05-05 17:33 32.00218 34.87666 118 ft 8 kts 347°
2026-05-05 17:33 32.00274 34.87693 118 ft 10 kts 29°
2026-05-05 17:34 32.00340 34.87741 119 ft 13 kts 32°
2026-05-05 17:34 32.00428 34.87805 118 ft 17 kts 32°
2026-05-05 17:34 32.00539 34.87883 118 ft 20 kts 31°
2026-05-05 17:34 32.00639 34.87955 118 ft 7 kts 32°
2026-05-05 17:35 32.00640 34.87956 118 ft 0 kts 32°
2026-05-05 17:35 32.00643 34.87958 117 ft 2 kts 32°
2026-05-05 17:35 32.00674 34.87980 117 ft 9 kts 32°
2026-05-05 17:35 32.00749 34.88035 115 ft 16 kts 32°
2026-05-05 17:36 32.00860 34.88115 116 ft 21 kts 31°
2026-05-05 17:36 32.01002 34.88219 116 ft 26 kts 31°
2026-05-05 17:36 32.01167 34.88336 119 ft 29 kts 31°
2026-05-05 17:36 32.01323 34.88474 116 ft 27 kts 46°
2026-05-05 17:37 32.01433 34.88646 119 ft 26 kts 58°
2026-05-05 17:37 32.01482 34.88762 118 ft 19 kts 82°
2026-05-05 17:37 32.01514 34.88961 117 ft 18 kts 78°
2026-05-05 17:37 32.01537 34.89105 119 ft 17 kts 80°
2026-05-05 17:38 32.01616 34.89158 115 ft 15 kts 349°
2026-05-05 17:38 32.01714 34.89136 115 ft 14 kts 349°
2026-05-05 17:38 32.01748 34.89100 115 ft 4 kts 273°
2026-05-05 17:38 32.01730 34.88993 118 ft 41 kts 258°
2026-05-05 17:39 32.01634 34.88368 120 ft 111 kts 260°
2026-05-05 17:39 32.01476 34.87242 160 ft 163 kts 262°
2026-05-05 17:39 32.01291 34.85848 726 ft 176 kts 263°
2026-05-05 17:39 32.01059 34.84477 1749 ft 166 kts 258°
2026-05-05 17:40 32.00756 34.83109 2288 ft 182 kts 258°
2026-05-05 17:40 32.00421 34.81566 2532 ft 204 kts 258°
2026-05-05 17:40 32.00061 34.79882 2764 ft 222 kts 258°
2026-05-05 17:40 31.99674 34.78072 3116 ft 235 kts 258°
2026-05-05 17:41 31.99273 34.76126 3500 ft 249 kts 262°
2026-05-05 17:41 31.99365 34.74106 4241 ft 248 kts 285°
2026-05-05 17:41 31.99915 34.72167 4973 ft 251 kts 289°
2026-05-05 17:41 32.00545 34.70241 5697 ft 253 kts 290°
2026-05-05 17:42 32.01173 34.68301 6421 ft 255 kts 289°
2026-05-05 17:42 32.01798 34.66334 7069 ft 258 kts 289°
2026-05-05 17:42 32.02760 34.64535 7639 ft 267 kts 318°
2026-05-05 17:42 32.04434 34.63553 8310 ft 274 kts 343°
2026-05-05 17:43 32.06321 34.63148 8969 ft 278 kts 349°
2026-05-05 17:43 32.08257 34.62855 9612 ft 282 kts 350°
2026-05-05 17:43 32.10214 34.62583 10238 ft 285 kts 351°
2026-05-05 17:43 32.12253 34.62298 10418 ft 305 kts 350°
2026-05-05 17:44 32.14429 34.61987 10576 ft 325 kts 351°
2026-05-05 17:44 32.16735 34.61650 10788 ft 341 kts 350°
2026-05-05 17:44 32.19113 34.61299 11237 ft 348 kts 350°
2026-05-05 17:44 32.21529 34.60940 11808 ft 351 kts 350°
2026-05-05 17:45 32.23963 34.60574 12426 ft 354 kts 349°
2026-05-05 17:45 32.26411 34.60203 13049 ft 357 kts 349°
2026-05-05 17:45 32.28886 34.59826 13647 ft 360 kts 349°
2026-05-05 17:45 32.31384 34.59443 14222 ft 364 kts 349°
2026-05-05 17:46 32.33084 34.59182 14615 ft 365 kts 349°
2026-05-05 17:46 32.35613 34.58794 15209 ft 368 kts 349°
2026-05-05 17:46 32.38160 34.58401 15798 ft 371 kts 349°
2026-05-05 17:46 32.40727 34.58006 16386 ft 374 kts 349°
2026-05-05 17:47 32.43319 34.57606 16947 ft 377 kts 348°
2026-05-05 17:47 32.45930 34.57202 17528 ft 380 kts 348°
2026-05-05 17:47 32.48558 34.56796 18092 ft 383 kts 348°
2026-05-05 17:47 32.51213 34.56386 18610 ft 386 kts 348°
2026-05-05 17:48 32.53886 34.55972 19087 ft 389 kts 348°
2026-05-05 17:48 32.56582 34.55555 19557 ft 393 kts 348°
2026-05-05 17:48 32.59304 34.55133 20028 ft 396 kts 348°
2026-05-05 17:48 32.62045 34.54708 20499 ft 399 kts 348°
2026-05-05 17:49 32.64806 34.54280 20957 ft 402 kts 348°
2026-05-05 17:49 32.67593 34.53848 21403 ft 405 kts 348°
2026-05-05 17:49 32.70398 34.53412 21852 ft 408 kts 348°
2026-05-05 17:49 32.73223 34.52973 22296 ft 411 kts 348°
2026-05-05 17:50 32.76073 34.52530 22720 ft 414 kts 348°
2026-05-05 17:50 32.78942 34.52084 23144 ft 417 kts 348°
2026-05-05 17:50 32.81829 34.51635 23575 ft 420 kts 348°
2026-05-05 17:50 32.84736 34.51182 23935 ft 423 kts 348°
2026-05-05 17:51 32.87656 34.50727 24325 ft 424 kts 347°
2026-05-05 17:51 32.90587 34.50271 24721 ft 425 kts 347°
2026-05-05 17:51 32.93527 34.49812 25081 ft 427 kts 347°
2026-05-05 17:51 32.96480 34.49351 25438 ft 429 kts 347°
2026-05-05 17:52 32.99446 34.48887 25794 ft 431 kts 347°
2026-05-05 17:52 33.02430 34.48421 26130 ft 433 kts 347°
2026-05-05 17:52 33.05425 34.47952 26471 ft 435 kts 347°
2026-05-05 17:52 33.08431 34.47481 26796 ft 437 kts 347°
2026-05-05 17:53 33.11451 34.47008 27116 ft 439 kts 347°
2026-05-05 17:53 33.14482 34.46533 27421 ft 441 kts 347°
2026-05-05 17:53 33.17529 34.46054 27726 ft 443 kts 346°
2026-05-05 17:53 33.20590 34.45574 28022 ft 444 kts 346°
2026-05-05 17:54 33.23664 34.45091 28322 ft 446 kts 346°
2026-05-05 17:54 33.26741 34.44607 28620 ft 448 kts 346°
2026-05-05 17:54 33.29838 34.44120 28905 ft 449 kts 346°
2026-05-05 17:54 33.32946 34.43631 29193 ft 451 kts 346°
2026-05-05 17:55 33.36052 34.43142 29569 ft 450 kts 346°
2026-05-05 17:55 33.39151 34.42655 30009 ft 448 kts 346°
2026-05-05 17:55 33.42236 34.42170 30378 ft 446 kts 346°
2026-05-05 17:55 33.45316 34.41684 30656 ft 447 kts 346°
2026-05-05 17:56 33.48398 34.41197 30928 ft 447 kts 346°
2026-05-05 17:56 33.51477 34.40710 31244 ft 446 kts 346°
2026-05-05 17:56 33.54547 34.40224 31561 ft 444 kts 346°
2026-05-05 17:56 33.57608 34.39739 31845 ft 444 kts 346°
2026-05-05 17:57 33.60671 34.39254 32116 ft 444 kts 346°
2026-05-05 17:57 33.63735 34.38768 32409 ft 443 kts 346°
2026-05-05 17:57 33.66790 34.38283 32698 ft 443 kts 345°
2026-05-05 17:57 33.69839 34.37799 32971 ft 442 kts 345°
2026-05-05 17:58 33.72889 34.37314 33238 ft 442 kts 345°
2026-05-05 17:58 33.75933 34.36830 33521 ft 441 kts 345°
2026-05-05 17:58 33.78977 34.36345 33805 ft 440 kts 345°
2026-05-05 17:58 33.82011 34.35862 34035 ft 440 kts 345°
2026-05-05 17:59 33.85058 34.35374 34028 ft 444 kts 345°
2026-05-05 17:59 33.91164 34.34400 34038 ft 440 kts 345°
2026-05-05 18:00 33.97219 34.33436 34045 ft 437 kts 345°
2026-05-05 18:00 34.03235 34.32473 34044 ft 435 kts 345°
2026-05-05 18:01 34.09225 34.31513 34040 ft 434 kts 346°
2026-05-05 18:01 34.15202 34.30552 34044 ft 433 kts 346°
2026-05-05 18:02 34.21170 34.29592 34041 ft 433 kts 346°
2026-05-05 18:02 34.27146 34.28630 34045 ft 433 kts 346°
2026-05-05 18:03 34.33128 34.27665 34041 ft 434 kts 346°
2026-05-05 18:03 34.39121 34.26698 34041 ft 435 kts 346°
2026-05-05 18:04 34.45122 34.25728 34034 ft 435 kts 346°
2026-05-05 18:04 34.51123 34.24756 34027 ft 435 kts 346°
2026-05-05 18:05 34.57127 34.23783 34024 ft 435 kts 346°
2026-05-05 18:05 34.63128 34.22809 34024 ft 435 kts 346°
2026-05-05 18:06 34.69126 34.21834 34024 ft 434 kts 346°
2026-05-05 18:06 34.75113 34.20860 34023 ft 433 kts 346°
2026-05-05 18:07 34.81083 34.19887 34023 ft 433 kts 346°
2026-05-05 18:07 34.87046 34.18913 34022 ft 432 kts 346°
2026-05-05 18:08 34.92998 34.17939 34022 ft 431 kts 346°
2026-05-05 18:08 34.98939 34.16966 34021 ft 430 kts 346°
2026-05-05 18:09 35.04870 34.15993 34022 ft 430 kts 346°
2026-05-05 18:09 35.10798 34.15019 34017 ft 430 kts 346°
2026-05-05 18:10 35.16721 34.14045 34020 ft 429 kts 346°
2026-05-05 18:10 35.22597 34.13077 34009 ft 429 kts 346°
2026-05-05 18:11 35.28510 34.12101 34022 ft 429 kts 346°
2026-05-05 18:11 35.34418 34.11125 34012 ft 428 kts 346°
2026-05-05 18:12 35.40326 34.10147 34008 ft 428 kts 346°
2026-05-05 18:12 35.46232 34.09168 34009 ft 428 kts 346°
2026-05-05 18:13 35.52139 34.08188 34003 ft 429 kts 347°
2026-05-05 18:13 35.58048 34.07206 34010 ft 428 kts 347°
2026-05-05 18:14 35.63969 34.06281 33999 ft 432 kts 352°
2026-05-05 18:14 35.70013 34.06405 34001 ft 436 kts 356°
2026-05-05 18:15 35.76075 34.06735 34002 ft 436 kts 356°
2026-05-05 18:15 35.82180 34.07025 33995 ft 436 kts 356°
2026-05-05 18:16 35.88243 34.07268 33994 ft 436 kts 356°
2026-05-05 18:16 35.94305 34.07498 33998 ft 436 kts 356°
2026-05-05 18:17 36.00366 34.07726 33994 ft 436 kts 356°
2026-05-05 18:17 36.06419 34.07955 33987 ft 435 kts 356°
2026-05-05 18:18 36.12464 34.08186 33985 ft 434 kts 356°
2026-05-05 18:18 36.18491 34.08417 33976 ft 432 kts 356°
2026-05-05 18:19 36.24496 34.08646 33976 ft 431 kts 356°
2026-05-05 18:19 36.30475 34.08876 33968 ft 429 kts 356°
2026-05-05 18:20 36.36431 34.09104 33978 ft 427 kts 356°
2026-05-05 18:20 36.42357 34.09331 33978 ft 425 kts 356°
2026-05-05 18:21 36.48259 34.09558 33987 ft 423 kts 356°
2026-05-05 18:21 36.54132 34.09784 33997 ft 422 kts 356°
2026-05-05 18:22 36.59949 34.10008 33998 ft 420 kts 356°
2026-05-05 18:22 36.65791 34.10622 33999 ft 428 kts
2026-05-05 18:23 36.71377 34.13431 33992 ft 443 kts 26°
2026-05-05 18:23 36.76497 34.17750 34007 ft 445 kts 28°
2026-05-05 18:24 36.81566 34.22189 34008 ft 445 kts 28°
2026-05-05 18:24 36.86651 34.26597 34020 ft 445 kts 28°
2026-05-05 18:25 36.91747 34.30973 34011 ft 444 kts 27°
2026-05-05 18:25 36.96839 34.35335 34020 ft 443 kts 27°
2026-05-05 18:26 37.01060 34.38954 34022 ft 442 kts 27°
2026-05-05 18:26 37.06133 34.43311 33998 ft 442 kts 27°
2026-05-05 18:27 37.11188 34.47662 34018 ft 440 kts 27°
2026-05-05 18:27 37.16222 34.52003 34020 ft 438 kts 28°
2026-05-05 18:28 37.23732 34.58490 34020 ft 436 kts 28°
2026-05-05 18:28 37.28719 34.62808 34026 ft 436 kts 28°
2026-05-05 18:29 37.33711 34.67132 34028 ft 436 kts 28°
2026-05-05 18:29 37.38701 34.71466 34025 ft 436 kts 28°
2026-05-05 18:30 37.43698 34.75813 34032 ft 437 kts 28°
2026-05-05 18:30 37.48697 34.80169 34022 ft 437 kts 28°
2026-05-05 18:31 37.53694 34.84531 34033 ft 438 kts 28°
2026-05-05 18:31 37.58703 34.88909 34039 ft 438 kts 29°
2026-05-05 18:32 37.63712 34.93296 34038 ft 437 kts 29°
2026-05-05 18:32 37.68706 34.97679 34020 ft 437 kts 29°
2026-05-05 18:33 37.73696 35.02063 34033 ft 436 kts 29°
2026-05-05 18:33 37.78678 35.06446 34033 ft 437 kts 30°
2026-05-05 18:34 37.83670 35.10847 34031 ft 438 kts 30°
2026-05-05 18:34 37.88666 35.15259 34029 ft 438 kts 30°
2026-05-05 18:35 37.93673 35.19688 34021 ft 439 kts 30°
2026-05-05 18:35 37.98683 35.24128 34016 ft 440 kts 30°
2026-05-05 18:36 38.03693 35.28575 34016 ft 439 kts 30°
2026-05-05 18:36 38.08706 35.33032 34009 ft 440 kts 31°
2026-05-05 18:37 38.13719 35.37497 34025 ft 440 kts 31°
2026-05-05 18:37 38.18736 35.41973 34014 ft 441 kts 31°
2026-05-05 18:38 38.23761 35.46465 34006 ft 442 kts 31°
2026-05-05 18:38 38.28797 35.50974 34005 ft 443 kts 31°
2026-05-05 18:39 38.33843 35.55500 34004 ft 444 kts 32°
2026-05-05 18:39 38.38891 35.60039 34007 ft 444 kts 32°
2026-05-05 18:40 38.43946 35.64596 34003 ft 445 kts 32°
2026-05-05 18:40 38.48997 35.69157 34010 ft 445 kts 32°
2026-05-05 18:41 38.54058 35.73735 34012 ft 446 kts 32°
2026-05-05 18:41 38.59152 35.78351 34007 ft 446 kts 32°
2026-05-05 18:42 38.64221 35.82952 34009 ft 447 kts 33°
2026-05-05 18:42 38.69286 35.87558 34006 ft 447 kts 33°
2026-05-05 18:43 38.74353 35.92174 34005 ft 447 kts 33°
2026-05-05 18:43 38.79425 35.96802 34001 ft 448 kts 33°
2026-05-05 18:44 38.84497 36.01439 33998 ft 448 kts 33°
2026-05-05 18:44 38.89568 36.06083 34000 ft 448 kts 33°
2026-05-05 18:45 38.94642 36.10738 33994 ft 448 kts 33°
2026-05-05 18:45 38.99720 36.15406 33992 ft 449 kts 33°
2026-05-05 18:46 39.04805 36.20088 33988 ft 450 kts 33°
2026-05-05 18:46 39.09890 36.24779 33990 ft 450 kts 34°
2026-05-05 18:47 39.14980 36.29482 33996 ft 450 kts 34°
2026-05-05 18:47 39.20069 36.34194 33992 ft 451 kts 34°
2026-05-05 18:48 39.25159 36.38915 33995 ft 451 kts 34°
2026-05-05 18:48 39.30255 36.43650 33990 ft 452 kts 34°
2026-05-05 18:49 39.35351 36.48394 33994 ft 452 kts 34°
2026-05-05 18:49 39.40457 36.53156 33985 ft 453 kts 34°
2026-05-05 18:50 39.45560 36.57925 33987 ft 453 kts 35°
2026-05-05 18:50 39.50669 36.62707 33986 ft 453 kts 35°
2026-05-05 18:51 39.55782 36.67502 33991 ft 454 kts 35°
2026-05-05 18:51 39.60898 36.72310 33991 ft 454 kts 35°
2026-05-05 18:52 39.66015 36.77127 33992 ft 455 kts 35°
2026-05-05 18:52 39.71131 36.81953 33993 ft 455 kts 35°
2026-05-05 18:53 39.76244 36.86812 33994 ft 456 kts 39°
2026-05-05 18:53 39.80535 36.92842 33987 ft 456 kts 57°
2026-05-05 18:54 39.83685 37.00003 33992 ft 456 kts 61°
2026-05-05 18:54 39.86736 37.07250 33993 ft 457 kts 61°
2026-05-05 18:55 39.89827 37.14485 33989 ft 458 kts 61°
2026-05-05 18:55 39.92968 37.21768 33984 ft 458 kts 61°
2026-05-05 18:56 39.96091 37.29013 33986 ft 459 kts 61°
2026-05-05 18:56 39.99211 37.36274 33977 ft 459 kts 61°
2026-05-05 18:57 40.02327 37.43545 33987 ft 459 kts 62°
2026-05-05 18:57 40.05439 37.50824 33994 ft 459 kts 62°
2026-05-05 18:58 40.08552 37.58118 33986 ft 460 kts 62°
2026-05-05 18:58 40.11675 37.65397 33988 ft 459 kts 62°
2026-05-05 18:59 40.14801 37.72674 33998 ft 459 kts 62°
2026-05-05 18:59 40.17919 37.79959 33995 ft 459 kts 62°
2026-05-05 19:00 40.21028 37.87244 33997 ft 458 kts 62°
2026-05-05 19:00 40.24129 37.94530 33998 ft 458 kts 62°
2026-05-05 19:01 40.27221 38.01813 34002 ft 458 kts 63°
2026-05-05 19:01 40.30309 38.09103 33993 ft 458 kts 63°
2026-05-05 19:02 40.33388 38.16404 33999 ft 457 kts 63°
2026-05-05 19:02 40.36352 38.23776 33996 ft 457 kts 64°
2026-05-05 19:03 40.39342 38.31147 33994 ft 458 kts 63°
2026-05-05 19:03 40.41943 38.37191 33987 ft 458 kts 62°
2026-05-05 19:04 40.45082 38.44449 34008 ft 457 kts 63°
2026-05-05 19:04 40.48194 38.51736 34016 ft 457 kts 63°
2026-05-05 19:05 40.51291 38.59035 34005 ft 457 kts 63°
2026-05-05 19:05 40.54302 38.66390 34015 ft 457 kts 64°
2026-05-05 19:06 40.57290 38.73765 34026 ft 457 kts 64°
2026-05-05 19:06 40.60285 38.81140 34025 ft 457 kts 64°
2026-05-05 19:07 40.63307 38.88584 34029 ft 458 kts 64°
2026-05-05 19:07 40.66301 38.95990 34030 ft 458 kts 64°
2026-05-05 19:08 40.69285 39.03411 34034 ft 458 kts 65°
2026-05-05 19:08 40.72265 39.10841 34032 ft 459 kts 65°
2026-05-05 19:09 40.75244 39.18286 34041 ft 460 kts 65°
2026-05-05 19:09 40.78222 39.25746 34041 ft 459 kts 65°
2026-05-05 19:10 40.81194 39.33206 34053 ft 459 kts 65°
2026-05-05 19:10 40.84154 39.40658 34042 ft 457 kts 65°
2026-05-05 19:11 40.87101 39.48096 34044 ft 456 kts 65°
2026-05-05 19:11 40.90034 39.55516 34067 ft 455 kts 65°
2026-05-05 19:12 40.92961 39.62942 34068 ft 455 kts 65°
2026-05-05 19:12 40.95882 39.70370 34071 ft 455 kts 65°
2026-05-05 19:13 40.98778 39.77817 34070 ft 454 kts 69°
2026-05-05 19:13 41.00562 39.85718 34080 ft 446 kts 82°
2026-05-05 19:14 41.01719 39.93793 34082 ft 446 kts 83°
2026-05-05 19:14 41.02868 40.01863 34066 ft 446 kts 82°
2026-05-05 19:15 41.04047 40.09928 34057 ft 446 kts 82°
2026-05-05 19:15 41.05238 40.17982 34059 ft 446 kts 82°
2026-05-05 19:16 41.06428 40.26037 34047 ft 445 kts 82°
2026-05-05 19:16 41.07610 40.34088 34053 ft 445 kts 82°
2026-05-05 19:17 41.08784 40.42129 34048 ft 444 kts 83°
2026-05-05 19:17 41.09952 40.50175 34049 ft 444 kts 83°
2026-05-05 19:18 41.11114 40.58217 34050 ft 444 kts 83°
2026-05-05 19:18 41.12269 40.66255 34051 ft 444 kts 83°
2026-05-05 19:19 41.13419 40.74301 34048 ft 444 kts 83°
2026-05-05 19:19 41.14563 40.82348 34055 ft 444 kts 83°
2026-05-05 19:20 41.15704 40.90413 34050 ft 445 kts 83°
2026-05-05 19:20 41.16840 40.98489 34042 ft 446 kts 83°
2026-05-05 19:21 41.17973 41.06582 34048 ft 447 kts 83°
2026-05-05 19:21 41.19104 41.14699 34048 ft 448 kts 83°
2026-05-05 19:22 41.20230 41.22835 34053 ft 448 kts 83°
2026-05-05 19:22 41.21351 41.30976 34055 ft 448 kts 83°
2026-05-05 19:23 41.22476 41.39189 34042 ft 449 kts 83°
2026-05-05 19:23 41.23587 41.47343 34041 ft 449 kts 83°
2026-05-05 19:24 41.24692 41.55504 34051 ft 449 kts 83°
2026-05-05 19:24 41.25791 41.63663 34047 ft 449 kts 83°
2026-05-05 19:25 41.26885 41.71825 34050 ft 448 kts 83°
2026-05-05 19:25 41.27971 41.79982 34045 ft 448 kts 84°
2026-05-05 19:26 41.29053 41.88145 34028 ft 448 kts 84°
2026-05-05 19:26 41.30126 41.96289 34046 ft 447 kts 84°
2026-05-05 19:27 41.31184 42.04450 34029 ft 448 kts 84°
2026-05-05 19:27 41.32228 42.12617 34032 ft 448 kts 84°
2026-05-05 19:28 41.33269 42.20802 34025 ft 449 kts 84°
2026-05-05 19:28 41.34300 42.28935 34005 ft 447 kts 84°
2026-05-05 19:29 41.35316 42.36977 33991 ft 436 kts 84°
2026-05-05 19:29 41.36310 42.44909 33902 ft 437 kts 84°
2026-05-05 19:30 41.36807 42.48913 33555 ft 437 kts 84°
2026-05-05 19:30 41.37302 42.52883 33143 ft 432 kts 84°
2026-05-05 19:30 41.37789 42.56805 32767 ft 428 kts 84°
2026-05-05 19:30 41.38271 42.60693 32355 ft 424 kts 84°
2026-05-05 19:31 41.38747 42.64550 31964 ft 420 kts 84°
2026-05-05 19:31 41.39217 42.68378 31566 ft 417 kts 84°
2026-05-05 19:31 41.39682 42.72173 31183 ft 414 kts 84°
2026-05-05 19:31 41.40142 42.75936 30815 ft 411 kts 84°
2026-05-05 19:32 41.40599 42.79683 30429 ft 409 kts 84°
2026-05-05 19:32 41.41052 42.83412 30040 ft 406 kts 84°
2026-05-05 19:32 41.41500 42.87113 29608 ft 404 kts 84°
2026-05-05 19:32 41.41946 42.90792 29195 ft 401 kts 84°
2026-05-05 19:33 41.42386 42.94436 28811 ft 396 kts 84°
2026-05-05 19:33 41.42820 42.98043 28437 ft 392 kts 84°
2026-05-05 19:33 41.43250 43.01620 28014 ft 390 kts 84°
2026-05-05 19:33 41.43683 43.05221 27620 ft 387 kts 84°
2026-05-05 19:34 41.44105 43.08744 27247 ft 383 kts 84°
2026-05-05 19:34 41.44523 43.12240 26866 ft 380 kts 84°
2026-05-05 19:34 41.44936 43.15705 26500 ft 377 kts 84°
2026-05-05 19:35 41.45751 43.22563 25770 ft 371 kts 83°
2026-05-05 19:35 41.46151 43.25949 25411 ft 369 kts 83°
2026-05-05 19:35 41.46549 43.29315 25048 ft 366 kts 83°
2026-05-05 19:35 41.46942 43.32657 24695 ft 363 kts 83°
2026-05-05 19:36 41.47331 43.35975 24345 ft 361 kts 83°
2026-05-05 19:36 41.47717 43.39272 23997 ft 359 kts 83°
2026-05-05 19:36 41.48099 43.42545 23647 ft 357 kts 83°
2026-05-05 19:36 41.48478 43.45802 23246 ft 354 kts 83°
2026-05-05 19:37 41.48854 43.49038 22861 ft 352 kts 83°
2026-05-05 19:37 41.49221 43.52201 22518 ft 348 kts 83°
2026-05-05 19:37 41.49588 43.55369 22174 ft 344 kts 83°
2026-05-05 19:37 41.49950 43.58511 21823 ft 341 kts 83°
2026-05-05 19:38 41.50308 43.61624 21487 ft 338 kts 83°
2026-05-05 19:38 41.50663 43.64712 21137 ft 335 kts 83°
2026-05-05 19:38 41.51013 43.67775 20807 ft 333 kts 83°
2026-05-05 19:38 41.51360 43.70811 20469 ft 330 kts 83°
2026-05-05 19:39 41.51704 43.73832 20139 ft 328 kts 83°
2026-05-05 19:39 41.52045 43.76838 19812 ft 326 kts 83°
2026-05-05 19:39 41.52384 43.79824 19481 ft 324 kts 83°
2026-05-05 19:39 41.52719 43.82790 19160 ft 322 kts 83°
2026-05-05 19:40 41.53052 43.85742 18837 ft 321 kts 83°
2026-05-05 19:40 41.53383 43.88674 18524 ft 319 kts 83°
2026-05-05 19:40 41.53600 43.90608 18302 ft 318 kts 83°
2026-05-05 19:40 41.53927 43.93520 17943 ft 316 kts 83°
2026-05-05 19:41 41.54251 43.96418 17592 ft 315 kts 83°
2026-05-05 19:41 41.54572 43.99296 17274 ft 312 kts 83°
2026-05-05 19:41 41.54890 44.02148 16942 ft 310 kts 83°
2026-05-05 19:41 41.55205 44.04984 16621 ft 308 kts 83°
2026-05-05 19:42 41.55517 44.07799 16302 ft 306 kts 83°
2026-05-05 19:42 41.55831 44.10636 15985 ft 304 kts 83°
2026-05-05 19:42 41.56134 44.13383 15683 ft 302 kts 83°
2026-05-05 19:42 41.56443 44.16192 15373 ft 302 kts 84°
2026-05-05 19:43 41.56744 44.18932 15076 ft 304 kts 84°
2026-05-05 19:43 41.57042 44.21750 14759 ft 308 kts 88°
2026-05-05 19:43 41.56909 44.24612 14438 ft 311 kts 101°
2026-05-05 19:43 41.56533 44.27474 14118 ft 315 kts 103°
2026-05-05 19:44 41.56128 44.30348 13770 ft 315 kts 103°
2026-05-05 19:44 41.55726 44.33216 13396 ft 314 kts 103°
2026-05-05 19:44 41.55334 44.36080 13041 ft 313 kts 102°
2026-05-05 19:44 41.54948 44.38967 12699 ft 311 kts 102°
2026-05-05 19:45 41.54574 44.41807 12365 ft 310 kts 102°
2026-05-05 19:45 41.54206 44.44626 12054 ft 307 kts 102°
2026-05-05 19:45 41.53844 44.47416 11733 ft 306 kts 102°
2026-05-05 19:45 41.53483 44.50204 11402 ft 304 kts 101°
2026-05-05 19:46 41.53128 44.52945 11076 ft 303 kts 101°
2026-05-05 19:46 41.52765 44.55744 10763 ft 301 kts 101°
2026-05-05 19:46 41.52409 44.58489 10448 ft 300 kts 101°
2026-05-05 19:46 41.52055 44.61216 10242 ft 295 kts 101°
2026-05-05 19:47 41.51710 44.63874 10104 ft 287 kts 101°
2026-05-05 19:47 41.51374 44.66460 9957 ft 280 kts 101°
2026-05-05 19:47 41.51040 44.69016 9652 ft 279 kts 101°
2026-05-05 19:47 41.50709 44.71552 9352 ft 277 kts 101°
2026-05-05 19:48 41.50379 44.74073 9077 ft 275 kts 101°
2026-05-05 19:48 41.50049 44.76581 8792 ft 273 kts 101°
2026-05-05 19:48 41.49723 44.79069 8514 ft 272 kts 101°
2026-05-05 19:48 41.49397 44.81545 8240 ft 270 kts 101°
2026-05-05 19:49 41.49073 44.84002 7967 ft 268 kts 101°
2026-05-05 19:49 41.48750 44.86448 7693 ft 267 kts 101°
2026-05-05 19:49 41.48429 44.88876 7427 ft 265 kts 101°
2026-05-05 19:49 41.48109 44.91288 7173 ft 263 kts 101°
2026-05-05 19:50 41.47804 44.93595 7097 ft 242 kts 101°
2026-05-05 19:50 41.47531 44.95657 7308 ft 210 kts 101°
2026-05-05 19:50 41.47278 44.97564 6936 ft 208 kts 101°
2026-05-05 19:50 41.47029 44.99428 6644 ft 198 kts 101°
2026-05-05 19:51 41.46793 45.01190 6300 ft 189 kts 101°
2026-05-05 19:51 41.46567 45.02882 5932 ft 182 kts 101°
2026-05-05 19:51 41.46347 45.04524 5533 ft 180 kts 101°
2026-05-05 19:51 41.46441 45.06161 5106 ft 180 kts 63°
2026-05-05 19:52 41.47223 45.07432 4806 ft 177 kts 48°
2026-05-05 19:52 41.48064 45.08622 4440 ft 176 kts 48°
2026-05-05 19:52 41.48898 45.09808 4090 ft 175 kts 47°
2026-05-05 19:52 41.49721 45.10975 3999 ft 170 kts 47°
2026-05-05 19:53 41.50537 45.12114 3984 ft 171 kts 40°
2026-05-05 19:53 41.51642 45.12557 4006 ft 179 kts 348°
2026-05-05 19:53 41.52816 45.11848 3984 ft 186 kts 333°
2026-05-05 19:53 41.53912 45.11048 3958 ft 174 kts 326°
2026-05-05 19:54 41.54866 45.10135 3975 ft 167 kts 324°
2026-05-05 19:54 41.55808 45.09135 4026 ft 184 kts 320°
2026-05-05 19:54 41.56750 45.08000 3975 ft 180 kts 317°
2026-05-05 19:54 41.57652 45.06862 3784 ft 176 kts 316°
2026-05-05 19:55 41.58510 45.05771 3584 ft 164 kts 316°
2026-05-05 19:55 41.59307 45.04758 3357 ft 154 kts 316°
2026-05-05 19:55 41.60075 45.03782 3158 ft 152 kts 316°
2026-05-05 19:55 41.60844 45.02806 2957 ft 153 kts 316°
2026-05-05 19:56 41.61609 45.01833 2728 ft 150 kts 317°
2026-05-05 19:56 41.62358 45.00882 2520 ft 147 kts 316°
2026-05-05 19:56 41.63092 44.99951 2314 ft 144 kts 317°
2026-05-05 19:56 41.63813 44.99036 2109 ft 140 kts 317°
2026-05-05 19:57 41.64522 44.98137 1914 ft 140 kts 317°
2026-05-05 19:57 41.64986 44.97540 1789 ft 140 kts 316°
2026-05-05 19:57 41.65921 44.96353 1564 ft 136 kts 318°
2026-05-05 19:57 41.66567 44.95548 1524 ft 107 kts 318°
2026-05-05 19:58 41.66968 44.95040 1524 ft 63 kts 316°
2026-05-05 19:58 41.67268 44.94664 1522 ft 56 kts 317°
2026-05-05 19:58 41.67548 44.94323 1524 ft 46 kts 317°
2026-05-05 19:58 41.67599 44.94234 1525 ft 5 kts 255°
2026-05-05 19:59 41.67572 44.94215 1525 ft 5 kts 175°
2026-05-05 19:59 41.67550 44.94266 1524 ft 12 kts 102°
2026-05-05 19:59 41.67529 44.94422 1524 ft 15 kts 82°
2026-05-05 19:59 41.67561 44.94556 1522 ft 15 kts 66°
2026-05-05 20:00 41.67594 44.94684 1519 ft 14 kts 74°
2026-05-05 20:00 41.67621 44.94809 1520 ft 14 kts 74°
2026-05-05 20:00 41.67654 44.94948 1523 ft 18 kts 73°
2026-05-05 20:00 41.67626 44.95097 1522 ft 19 kts 137°
2026-05-05 20:01 41.67526 44.95241 1520 ft 23 kts 129°
2026-05-05 20:01 41.67412 44.95421 1525 ft 27 kts 133°
2026-05-05 20:01 41.67278 44.95605 1525 ft 27 kts 134°
2026-05-05 20:01 41.67158 44.95774 1524 ft 21 kts 133°
2026-05-05 20:02 41.67071 44.95900 1523 ft 17 kts 126°
2026-05-05 20:02 41.67004 44.96020 1524 ft 15 kts 134°
2026-05-05 20:02 41.66983 44.96049 1522 ft 3 kts 133°
2026-05-05 20:02 41.66983 44.96077 1522 ft 3 kts 66°
2026-05-05 20:03 41.67012 44.96108 1526 ft 9 kts 37°
2026-05-05 20:03 41.67031 44.96131 1521 ft 3 kts 44°
2026-05-05 20:03 41.67035 44.96136 1522 ft 0 kts 44°